• In Deutschland
  • Länderverzeichnis
  • Für 7 Tage
  • Wassertemperatur
  • Satellitenkarten
  • Wetterkarte
  • Widgets
  • user-avatar
    Anmelden

    Stündliche Wetter Novosretenka

    Heute, 20 Juli, Freitag

    Zeit Temperatur Niederschläge Wind Luftdruck Luftfeuchtigkeit
    00:00 +19°C° 0 mm 2 m/S 688 mmHg 83%
    01:00 +20°C° 0 mm 1 m/S 688 mmHg 84%
    02:00 +20°C° 0,1 mm 1 m/S 688 mmHg 85%
    03:00 +19°C° 0,1 mm 1 m/S 688 mmHg 87%
    04:00 +19°C° 0,1 mm 1 m/S 687 mmHg 88%
    05:00 +20°C° 0,2 mm 1 m/S 687 mmHg 84%
    06:00 +22°C° 0,2 mm 1 m/S 687 mmHg 80%
    07:00 +23°C° 0,2 mm 1 m/S 688 mmHg 75%
    08:00 +25°C° 0,2 mm 1 m/S 688 mmHg 68%
    09:00 +28°C° 0,2 mm 1 m/S 688 mmHg 60%
    10:00 +30°C° 0,2 mm 1 m/S 688 mmHg 52%
    11:00 +30°C° 0,3 mm 1 m/S 688 mmHg 53%
    12:00 +30°C° 0,3 mm 2 m/S 688 mmHg 54%
    13:00 +30°C° 0,3 mm 3 m/S 687 mmHg 54%
    14:00 +29°C° 0,8 mm 2 m/S 687 mmHg 63%
    15:00 +27°C° 0,8 mm 2 m/S 687 mmHg 71%
    16:00 +26°C° 0,8 mm 2 m/S 687 mmHg 79%
    17:00 +25°C° 1 mm 2 m/S 687 mmHg 81%
    18:00 +23°C° 1 mm 2 m/S 687 mmHg 84%
    19:00 +21°C° 1 mm 2 m/S 687 mmHg 86%
    20:00 +20°C° 0,4 mm 2 m/S 686 mmHg 88%
    21:00 +20°C° 0,4 mm 1 m/S 686 mmHg 90%
    22:00 +19°C° 0,4 mm 1 m/S 686 mmHg 91%
    23:00 +19°C° 0,7 mm 1 m/S 686 mmHg 92%

    Morgen, 21 Juli, Samstag

    Zeit Temperatur Niederschläge Wind Luftdruck Luftfeuchtigkeit
    00:00 +18°C° 0,7 mm 1 m/S 686 mmHg 93%
    01:00 +18°C° 0,7 mm 1 m/S 686 mmHg 94%
    02:00 +18°C° 1,2 mm 1 m/S 686 mmHg 94%
    03:00 +16°C° 1,2 mm 1 m/S 686 mmHg 95%
    04:00 +16°C° 1,2 mm 2 m/S 686 mmHg 96%
    05:00 +16°C° 1,3 mm 2 m/S 686 mmHg 94%
    06:00 +17°C° 1,3 mm 2 m/S 686 mmHg 93%
    07:00 +17°C° 1,3 mm 3 m/S 686 mmHg 92%
    08:00 +17°C° 0,6 mm 3 m/S 687 mmHg 91%
    09:00 +17°C° 0,6 mm 3 m/S 687 mmHg 90%
    10:00 +17°C° 0,6 mm 2 m/S 688 mmHg 90%
    11:00 +17°C° 1,2 mm 2 m/S 688 mmHg 90%
    12:00 +17°C° 1,2 mm 2 m/S 688 mmHg 91%
    13:00 +16°C° 1,2 mm 2 m/S 688 mmHg 92%
    14:00 +17°C° 0,3 mm 3 m/S 689 mmHg 88%
    15:00 +18°C° 0,3 mm 3 m/S 689 mmHg 84%
    16:00 +18°C° 0,3 mm 4 m/S 690 mmHg 81%
    17:00 +18°C° 0,1 mm 3 m/S 690 mmHg 81%
    18:00 +17°C° 0,1 mm 3 m/S 690 mmHg 82%
    19:00 +17°C° 0,1 mm 3 m/S 691 mmHg 83%
    20:00 +16°C° 0 mm 3 m/S 691 mmHg 85%
    21:00 +15°C° 0 mm 2 m/S 691 mmHg 86%
    22:00 +14°C° 0 mm 2 m/S 691 mmHg 88%
    23:00 +14°C° 0 mm 2 m/S 691 mmHg 88%

    übermorgen, 22 Juli, Sonntag

    Zeit Temperatur Niederschläge Wind Luftdruck Luftfeuchtigkeit
    00:00 +14°C° 0 mm 2 m/S 692 mmHg 89%
    01:00 +13°C° 0 mm 3 m/S 692 mmHg 89%
    02:00 +12°C° 0 mm 3 m/S 692 mmHg 90%
    03:00 +12°C° 0 mm 3 m/S 692 mmHg 90%
    04:00 +12°C° 0 mm 3 m/S 692 mmHg 91%
    05:00 +13°C° 0 mm 3 m/S 693 mmHg 87%
    06:00 +13°C° 0 mm 4 m/S 693 mmHg 84%
    07:00 +14°C° 0 mm 4 m/S 694 mmHg 80%
    08:00 +15°C° 0 mm 4 m/S 694 mmHg 74%
    09:00 +17°C° 0 mm 4 m/S 694 mmHg 68%
    10:00 +18°C° 0 mm 4 m/S 694 mmHg 62%
    11:00 +20°C° 0 mm 4 m/S 694 mmHg 55%
    12:00 +22°C° 0 mm 4 m/S 694 mmHg 47%
    13:00 +23°C° 0 mm 4 m/S 694 mmHg 40%
    14:00 +25°C° 0 mm 4 m/S 694 mmHg 39%
    15:00 +25°C° 0 mm 4 m/S 694 mmHg 38%
    16:00 +25°C° 0 mm 3 m/S 694 mmHg 38%
    17:00 +23°C° 0 mm 2 m/S 694 mmHg 45%
    18:00 +21°C° 0 mm 2 m/S 694 mmHg 52%
    19:00 +20°C° 0 mm 1 m/S 694 mmHg 59%
    20:00 +18°C° 0 mm 1 m/S 694 mmHg 63%
    21:00 +16°C° 0 mm 1 m/S 694 mmHg 67%
    22:00 +14°C° 0 mm 1 m/S 694 mmHg 72%
    23:00 +13°C° 0 mm 1 m/S 693 mmHg 73%

    23 Juli, Montag

    Zeit Temperatur Niederschläge Wind Luftdruck Luftfeuchtigkeit
    00:00 +13°C° 0 mm 1 m/S 693 mmHg 75%
    01:00 +12°C° 0 mm 1 m/S 693 mmHg 77%
    02:00 +12°C° 0 mm 1 m/S 693 mmHg 77%
    03:00 +12°C° 0 mm 1 m/S 693 mmHg 78%
    04:00 +12°C° 0 mm 1 m/S 693 mmHg 79%
    05:00 +14°C° 0 mm 1 m/S 693 mmHg 72%
    06:00 +16°C° 0 mm 1 m/S 693 mmHg 65%
    07:00 +19°C° 0 mm 1 m/S 693 mmHg 58%
    08:00 +22°C° 0 mm 1 m/S 693 mmHg 51%
    09:00 +24°C° 0 mm 2 m/S 693 mmHg 45%
    10:00 +26°C° 0 mm 2 m/S 694 mmHg 38%
    11:00 +27°C° 0 mm 2 m/S 693 mmHg 36%
    12:00 +28°C° 0 mm 2 m/S 693 mmHg 34%
    13:00 +29°C° 0 mm 2 m/S 692 mmHg 31%
    14:00 +29°C° 0 mm 2 m/S 692 mmHg 32%
    15:00 +30°C° 0 mm 2 m/S 692 mmHg 33%
    16:00 +30°C° 0 mm 2 m/S 691 mmHg 35%
    17:00 +28°C° 0,2 mm 2 m/S 691 mmHg 44%
    18:00 +25°C° 0,2 mm 2 m/S 691 mmHg 53%
    19:00 +23°C° 0,2 mm 2 m/S 690 mmHg 62%
    20:00 +21°C° 0,2 mm 2 m/S 690 mmHg 65%
    21:00 +19°C° 0,2 mm 2 m/S 690 mmHg 67%
    22:00 +18°C° 0,2 mm 1 m/S 690 mmHg 70%
    23:00 +18°C° 0 mm 1 m/S 690 mmHg 71%

    24 Juli, Dienstag

    Zeit Temperatur Niederschläge Wind Luftdruck Luftfeuchtigkeit
    00:00 +16°C° 0 mm 1 m/S 690 mmHg 71%
    01:00 +16°C° 0 mm 1 m/S 690 mmHg 72%
    02:00 +15°C° 0 mm 1 m/S 690 mmHg 73%
    03:00 +15°C° 0 mm 1 m/S 690 mmHg 74%
    04:00 +14°C° 0 mm 1 m/S 690 mmHg 75%
    05:00 +16°C° 0 mm 1 m/S 690 mmHg 71%
    06:00 +19°C° 0 mm 1 m/S 690 mmHg 66%
    07:00 +21°C° 0 mm 1 m/S 691 mmHg 61%
    08:00 +23°C° 0 mm 1 m/S 691 mmHg 55%
    09:00 +25°C° 0 mm 1 m/S 691 mmHg 48%
    10:00 +27°C° 0 mm 2 m/S 691 mmHg 42%
    11:00 +28°C° 0 mm 2 m/S 691 mmHg 39%
    12:00 +30°C° 0 mm 2 m/S 690 mmHg 36%
    13:00 +31°C° 0 mm 3 m/S 690 mmHg 34%
    14:00 +31°C° 0 mm 2 m/S 690 mmHg 34%
    15:00 +31°C° 0 mm 2 m/S 690 mmHg 33%
    16:00 +31°C° 0 mm 2 m/S 690 mmHg 33%
    17:00 +29°C° 0 mm 2 m/S 690 mmHg 40%
    18:00 +27°C° 0 mm 2 m/S 689 mmHg 46%
    19:00 +25°C° 0 mm 1 m/S 689 mmHg 53%
    20:00 +23°C° 0 mm 1 m/S 689 mmHg 56%
    21:00 +21°C° 0 mm 1 m/S 689 mmHg 60%
    22:00 +20°C° 0 mm 1 m/S 689 mmHg 63%
    23:00 +19°C° 0,1 mm 1 m/S 689 mmHg 65%

    25 Juli, Mittwoch

    Zeit Temperatur Niederschläge Wind Luftdruck Luftfeuchtigkeit
    00:00 +19°C° 0,1 mm 1 m/S 689 mmHg 66%
    01:00 +18°C° 0,1 mm 1 m/S 690 mmHg 68%
    02:00 +18°C° 0 mm 1 m/S 689 mmHg 70%
    03:00 +16°C° 0 mm 1 m/S 689 mmHg 73%
    04:00 +16°C° 0 mm 1 m/S 689 mmHg 75%
    05:00 +19°C° 0 mm 1 m/S 690 mmHg 71%
    06:00 +21°C° 0 mm 1 m/S 690 mmHg 67%
    07:00 +23°C° 0 mm 1 m/S 691 mmHg 62%
    08:00 +25°C° 0 mm 1 m/S 691 mmHg 55%
    09:00 +28°C° 0 mm 1 m/S 691 mmHg 48%
    10:00 +30°C° 0 mm 1 m/S 691 mmHg 41%
    11:00 +31°C° 0 mm 1 m/S 691 mmHg 38%
    12:00 +32°C° 0 mm 2 m/S 691 mmHg 36%
    13:00 +34°C° 0 mm 2 m/S 691 mmHg 33%
    14:00 +34°C° 0 mm 2 m/S 691 mmHg 33%
    15:00 +34°C° 0 mm 2 m/S 691 mmHg 33%
    16:00 +32°C° 0 mm 2 m/S 691 mmHg 33%
    17:00 +30°C° 0 mm 1 m/S 690 mmHg 41%
    18:00 +29°C° 0 mm 1 m/S 690 mmHg 48%
    19:00 +27°C° 0 mm 1 m/S 690 mmHg 56%
    20:00 +25°C° 0 mm 1 m/S 690 mmHg 59%
    21:00 +24°C° 0 mm 1 m/S 690 mmHg 62%
    22:00 +22°C° 0 mm 1 m/S 690 mmHg 65%
    23:00 +22°C° 0 mm 1 m/S 690 mmHg 67%
    Mehr zeigen